Location: ??????
(55.7522°N, 37.6156°E)
Time: 16:39:49
(UTC+00:00)

Nadezhda 4 Rocket - Pass Details

Date: 14 June 2025
Orbit: 950 x 990 km, 82.9° (Epoch: 12 July)

Event Time Altitude Azimuth Distance (km) Brightness Sun altitude
Exits shadow 22:53:34 10° 184° (S) 2,727 5.7 -9.0°
Reaches altitude 10° 22:53:38 10° 184° (S) 2,703 5.7 -9.0°
Maximum altitude 22:59:49 80° 98° (E) 996 4.1 -8.7°
Drops below altitude 10° 23:06:08 10° 13° (NNE) 2,749 8.0 -8.3°
Sets 23:08:40 0° 13° (NNE) 3,706 9.1 -8.2°
